Flag for France Weather past 2 weeks in Amsterdam Island, French Southern Territories, France

Now
48 °F

Cool.


Feels Like: 45 °F
Forecast: 52 / 56 °F
Wind: 8 mph from South

Location: Martin De Vivies Ile Amsterdam

Current Time: Oct 22, 2014 at 7:47:43 PM

Latest Report: Oct 22, 2014 at 7:00 PM


Visibility: N/A

Pressure: 30.20 "Hg

Humidity: 68%

Dew point: 38 °F

Location of Amsterdam IslandLocation

Historic Weather in Amsterdam Island — Graph

°F

Amsterdam Island temperature yesterday

Maximum temperature yesterday: 57 °F (at 11:00 AM)
Minimum temperature yesterday: 53 °F (at 11:00 PM)
Average temperature yesterday: 55 °F

Past Weeks' High & Low Weather Summary

 TemperatureHumidityPressure
High61 °F (Oct 16, 1:00 PM)99% (Oct 10, 7:00 PM)30.39 "Hg (Oct 10, 7:00 PM)
Low43 °F (Oct 13, 9:00 PM)46% (Oct 13, 1:00 PM)29.72 "Hg (Oct 18, 3:00 AM)
Average53 °F82%30.15 "Hg
* Reported Oct 7 6:00 PM — Oct 22 6:00 PM, Amsterdam Island, Weather by CustomWeather, © 2014

Note: Actual official high and low records may vary slightly from our data, if they occured in-between our weather recording intervals... More about our weather records

Advertising

Amsterdam Island weather history for previous 24 hours

 ConditionsComfort  
Time TempWeatherWind HumidityBarometerVisibility
6:00 PM
Oct 22
48 °FCool.7 mph68%30.18 "HgN/A
5:00 PM51 °FCool.10 mph66%30.16 "HgN/A
4:00 PM53 °FCool.17 mph66%30.14 "HgN/A
3:00 PM52 °FCool.17 mph74%30.13 "HgN/A
2:00 PM53 °FCool.18 mph76%30.12 "HgN/A
1:00 PM52 °FCool.12 mph78%30.14 "HgN/A
12:00 PM51 °FCool.15 mph87%30.13 "HgN/A
11:00 AM49 °FCool.17 mph93%30.14 "HgN/A
10:00 AM48 °FCool.18 mph95%30.14 "HgN/A
9:00 AM48 °FCool.18 mph95%30.14 "HgN/A
8:00 AM48 °FCool.22 mph96%30.13 "HgN/A
7:00 AM47 °FCool.23 mph97%30.13 "HgN/A
6:00 AM48 °FCool.21 mph97%30.13 "HgN/A
5:00 AM48 °FCool.20 mph97%30.12 "HgN/A
4:00 AM49 °FCool.16 mph96%30.11 "HgN/A
3:00 AM49 °FCool.15 mph96%30.11 "HgN/A
2:00 AM49 °FCool.15 mph95%30.11 "HgN/A
1:00 AM50 °FCool.18 mph94%30.12 "HgN/A
12:00 AM51 °FCool.15 mph95%30.13 "HgN/A
11:00 PM
Oct 21
53 °FCool.5 mph95%30.12 "HgN/A
10:00 PM55 °FCool.14 mph96%30.11 "HgN/A
9:00 PM55 °FCool.18 mph95%30.11 "HgN/A
8:00 PM55 °FCool.18 mph95%30.11 "HgN/A
7:00 PM55 °FCool.17 mph95%30.09 "HgN/A
Weather by CustomWeather, © 2014

See weather overviewHow to use our weather pages